Current weather by "City, St" or "zip code"  
 

Current Conditions: HOUSTON/SUGAR LA

Clear


81.0 F

Last Updated on Jun 17 2024, 10:53 PM CDT
Humidity: 77%
Wind Speed: SE 9.2 mph
Barometer 29.87 in
Dewpoint: 73.0 F
Visibility: 10.00 mi
Precip: --
Heat Index: 85.8 F
Wind Chill: NA
Current conditions at:

HOUSTON/SUGAR LA (KSGR)

Lat: 29.62 Lon: 95.66

active severe weather and emergency alerts image image weather storm and storm spotter reports image weather observation monitoring service image
Active
Alerts
Storm Reports Obs
Monitoring

Sign-up For Email & Text Message Weather Alert Notification Services



Advertise Here

Observation History for HOUSTON/SUGAR LA


Time Wind
(mph)
Vis
(mi)
Weather Precip (in) Temperature (F) Relative
Humidity
Wind
Chill
(F)
Heat
Index
(F)
Pressure
Air Dwpt altimeter
(in)
sea level
(mb)
Rmks
10:53 PM CDT SE 9.2 10.00 Clear -- 81.0 73.0 77% NA 85.8 29.87 1011.5
09:53 PM CDT SE 6.9 10.00 Clear -- 81.0 73.0 77% NA 85.8 29.86 1011.2
08:53 PM CDT SE 13.9 10.00 Clear -- 81.0 73.0 77% NA 85.8 29.85 1010.8
07:53 PM CDT 10.00 Clear -- 82.9 73.0 72% NA 88.9 29.85 1010.8
06:53 PM CDT 10.00 Partly Cloudy -- 84.9 73.9 70% NA 92.5 29.83 1010.2
05:53 PM CDT 10.00 Partly Cloudy -- 89.1 73.9 61% NA 98.1 29.82 1009.8
04:53 PM CDT 10.00 Mostly Clear -- 91.0 75.0 60% NA 102.0 29.82 1009.8
03:53 PM CDT 10.00 Mostly Clear Trace 91.0 75.0 60% NA 102.0 29.82 1009.8
02:53 PM CDT 10.00 Mostly Clear Trace 91.0 77.0 64% NA 104.5 29.82 1009.8
01:53 PM CDT 10.00 Partly Cloudy -- 91.9 78.1 64% NA 107.4 29.83 1010.2
01:09 PM CDT 13.9 10.00 Clear -- 88.0 75.0 66% NA 97.9 29.83 1010.2
10:53 AM CDT SE 10.3 10.00 Mostly Cloudy Trace 89.1 77.0 68% NA 101.8 29.85 1010.8
07:53 AM CDT 8.1 10.00 Partly Cloudy -- 82.9 77.0 82% NA 91.9 29.83 1010.2
06:53 AM CDT SE 6.9 10.00 NULL -- 81.0 75.9 85% NA 87.3 29.83 1010.2
05:56 AM CDT SE 6.9 10.00 Mostly Clear -- 81.0 75.9 85% NA 87.3 29.82 1009.8
04:53 AM CDT 6.9 10.00 Clear -- 81.0 75.9 85% NA 87.3 29.83 1010.2
02:53 AM CDT 5.8 10.00 Clear -- 82.0 78.1 88% NA 91.0 29.83 1010.2
01:53 AM CDT 6.9 10.00 Clear -- 82.9 78.1 85% NA 92.8 29.85 1010.8
12:53 AM CDT 8.1 10.00 Partly Cloudy -- 82.9 78.1 85% NA 92.8 29.85 1010.8
11:53 PM CDT SE 10.3 10.00 Clear -- 82.9 78.1 85% NA 92.8 29.85 1010.8
10:53 PM CDT SE 11.4 10.00 Clear -- 84.0 77.0 80% NA 93.9 29.85 1010.8
08:53 PM CDT 10.00 Clear -- 86.0 75.9 72% NA 95.9 29.83 1010.2
07:53 PM CDT SE 10.3 10.00 Clear -- 88.0 75.9 68% NA 98.8 29.81 1009.5
06:53 PM CDT 17.2 10.00 Clear -- 90.0 75.0 62% NA 100.6 29.81 1009.5

Regional Weather Observation


HOUSTON/SUGAR LA (KSGR)

Clear
81.0 F

HOUSTON/UNIV (KMCJ)

Clear
80.6 F

HOUSTON/SOUTHWST (KAXH)

Clear
77.0 F

HOUSTON/HOBBY (KHOU)

Clear
81.0 F

HOUSTON/DW HOOKS (KDWH)

Clear
80.1 F

HOUSTON/INTNL (KIAH)

Clear
81.0 F

Advertise Here


Advertise Here